Location: Valencia
(39.4696°N, 0.3770°W)
Time: 09:01:55
(UTC+01:00)

ISS - Visible Passes

Search period start: 22 January 2017 00:00
Search period end: 01 February 2017 00:00
Orbit: 399 x 410 km, 51.6° (Epoch: 22 January)

Date Brightness Start Highest point End Pass type
(mag) Time Alt. Az. Time Alt. Az. Time Alt. Az.
26 Jan -1.1 19:31:05 10° SSE 19:32:22 14° SE 19:32:22 14° SE visible
27 Jan -1.9 20:13:27 10° SW 20:15:26 33° SW 20:15:26 33° SW visible
28 Jan -2.5 19:21:31 10° SSW 19:24:30 34° SE 19:25:42 25° E visible
28 Jan 0.2 20:58:08 10° W 20:58:23 11° W 20:58:23 11° W visible
29 Jan -2.6 20:05:26 10° WSW 20:08:33 46° NW 20:08:33 46° NW visible
30 Jan -3.4 19:12:59 10° SW 19:16:15 89° NW 19:18:39 17° NE visible
30 Jan 0.0 20:50:52 10° WNW 20:51:19 12° WNW 20:51:19 12° WNW visible
31 Jan -1.5 19:57:50 10° W 20:00:34 24° NNW 20:01:19 22° N visible
